Location: Newark
(33.6439°N, 114.9881°W)
Time: 10:29:00
(UTC+00:00)

A-11 Canister half - Pass Details

Date: 30 August 2019
Orbit: 1527 x 1682 km, 47.3° (Epoch: 20 October)

Event Time Altitude Azimuth Distance (km) Brightness Sun altitude
Rises 00:19:31 0° 305° (NW) 4,929 12.5 22.0°
Reaches altitude 10° 00:22:42 10° 303° (WNW) 3,944 12.1 21.3°
Maximum altitude 00:32:46 71° 223° (SW) 1,755 9.9 19.2°
Drops below altitude 10° 00:42:43 10° 141° (SE) 3,891 10.8 17.1°
Sets 00:45:50 0° 139° (SE) 4,859 11.2 16.5°
